| time (UTC) | temp C | wind direction | speed KPH | gust KPH | rain 1hr cm | rain 24hr cm | rain mn cm | humidity % | barometer mb |
| 20260508141530 | 16 | 296 | 4.8 | 11.3 | 0.00 | 0.00 | 0.00 | 53 | 1022.0 |
| 20260508140032 | 16 | 308 | 4.8 | 11.3 | 0.00 | 0.00 | 0.00 | 52 | 1022.1 |
| 20260508134534 | 15 | 256 | 6.4 | 14.5 | 0.00 | 0.00 | 0.00 | 55 | 1022.1 |
| 20260508133030 | 15 | 318 | 4.8 | 11.3 | 0.00 | 0.00 | 0.00 | 53 | 1022.3 |
| 20260508131527 | 15 | 238 | 6.4 | 14.5 | 0.00 | 0.00 | 0.00 | 54 | 1022.3 |
| 20260508130027 | 15 | 300 | 8.0 | 16.1 | 0.00 | 0.00 | 0.00 | 55 | 1022.4 |
| 20260508124528 | 15 | 248 | 8.0 | 16.1 | 0.00 | 0.00 | 0.00 | 54 | 1022.5 |
| 20260508123034 | 15 | 239 | 4.8 | 12.9 | 0.00 | 0.00 | 0.00 | 53 | 1022.5 |
| 20260508121534 | 15 | 215 | 3.2 | 11.3 | 0.00 | 0.00 | 0.00 | 55 | 1022.5 |
| 20260508120028 | 15 | 156 | 4.8 | 12.9 | 0.00 | 0.00 | 0.00 | 55 | 1022.4 |
| 20260508114527 | 15 | 229 | 4.8 | 14.5 | 0.00 | 0.00 | 0.00 | 56 | 1022.6 |
| 20260508113030 | 15 | 217 | 4.8 | 11.3 | 0.00 | 0.00 | 0.00 | 56 | 1022.5 |
| 20260508111534 | 15 | 256 | 6.4 | 11.3 | 0.00 | 0.00 | 0.00 | 57 | 1022.7 |
| 20260508110038 | 14 | 165 | 4.8 | 12.9 | 0.00 | 0.00 | 0.00 | 59 | 1022.6 |
| 20260508104528 | 15 | 237 | 4.8 | 16.1 | 0.00 | 0.00 | 0.00 | 60 | 1022.6 |
| 20260508103036 | 14 | 258 | 8.0 | 14.5 | 0.00 | 0.00 | 0.00 | 59 | 1022.7 |
| 20260508101535 | 15 | 174 | 8.0 | 16.1 | 0.00 | 0.00 | 0.00 | 59 | 1022.6 |
| 20260508100030 | 15 | 172 | 6.4 | 17.7 | 0.00 | 0.00 | 0.00 | 58 | 1022.7 |
| 20260508094528 | 15 | 200 | 8.0 | 14.5 | 0.00 | 0.00 | 0.00 | 51 | 1022.6 |
| 20260508093048 | 15 | 177 | 6.4 | 17.7 | 0.00 | 0.00 | 0.00 | 50 | 1022.7 |
| 20260508091531 | 15 | 160 | 3.2 | 16.1 | 0.00 | 0.00 | 0.00 | 52 | 1022.6 |
| 20260508090046 | 15 | 150 | 8.0 | 19.3 | 0.00 | 0.00 | 0.00 | 54 | 1022.5 |
| 20260508084528 | 15 | 132 | 4.8 | 17.7 | 0.00 | 0.00 | 0.00 | 56 | 1022.5 |
| 20260508083031 | 14 | 176 | 6.4 | 17.7 | 0.00 | 0.00 | 0.00 | 54 | 1022.5 |
| 20260508081528 | 14 | 208 | 8.0 | 16.1 | 0.00 | 0.00 | 0.00 | 57 | 1022.5 |
| 20260508080036 | 13 | 172 | 4.8 | 11.3 | 0.00 | 0.00 | 0.00 | 61 | 1022.4 |
| 20260508074536 | 13 | 115 | 3.2 | 12.9 | 0.00 | 0.00 | 0.00 | 63 | 1022.2 |
| 20260508073030 | 12 | 122 | 4.8 | 12.9 | 0.00 | 0.00 | 0.00 | 67 | 1022.1 |
| 20260508071530 | 10 | 106 | 1.6 | 4.8 | 0.00 | 0.00 | 0.00 | 76 | 1022.1 |
| 20260508070030 | 10 | 0 | 0.0 | 1.6 | 0.00 | 0.00 | 0.00 | 81 | 1021.9 |
| 20260508064529 | 8 | 0 | 0.0 | 1.6 | 0.00 | 0.00 | 0.00 | 85 | 1021.8 |
| 20260508063031 | 7 | 0 | 0.0 | 0.0 | 0.00 | 0.00 | 0.00 | 90 | 1021.8 |
| 20260508061530 | 6 | 0 | 0.0 | 0.0 | 0.00 | 0.00 | 0.00 | 92 | 1021.8 |
| 20260508060030 | 5 | 0 | 0.0 | 0.0 | 0.00 | 0.00 | 0.00 | 93 | 1021.5 |
| 20260508054528 | 5 | 0 | 0.0 | 0.0 | 0.00 | 0.00 | 0.00 | 94 | 1021.4 |
| 20260508053028 | 4 | 0 | 0.0 | 0.0 | 0.00 | 0.00 | 0.00 | 93 | 1021.4 |
| 20260508051529 | 4 | 0 | 0.0 | 0.0 | 0.00 | 0.00 | 0.00 | 93 | 1021.3 |
| 20260508050030 | 3 | 0 | 0.0 | 0.0 | 0.00 | 0.00 | 0.00 | 94 | 1021.0 |
| 20260508044528 | 3 | 0 | 0.0 | 0.0 | 0.00 | 0.00 | 0.00 | 94 | 1021.0 |
| 20260508043027 | 3 | 0 | 0.0 | 0.0 | 0.00 | 0.00 | 0.00 | 93 | 1021.0 |
| 20260508041534 | 3 | 0 | 0.0 | 0.0 | 0.00 | 0.00 | 0.00 | 93 | 1020.9 |
| 20260508040031 | 2 | 0 | 0.0 | 0.0 | 0.00 | 0.00 | 0.00 | 93 | 1021.0 |
| 20260508034528 | 3 | 0 | 0.0 | 0.0 | 0.00 | 0.00 | 0.00 | 92 | 1021.0 |
| 20260508033035 | 3 | 0 | 0.0 | 0.0 | 0.00 | 0.00 | 0.00 | 93 | 1020.8 |
| 20260508031527 | 3 | 0 | 0.0 | 0.0 | 0.00 | 0.00 | 0.00 | 93 | 1020.8 |
| 20260508030039 | 3 | 0 | 0.0 | 0.0 | 0.00 | 0.00 | 0.00 | 93 | 1020.8 |
| 20260508024530 | 3 | 0 | 0.0 | 0.0 | 0.00 | 0.00 | 0.00 | 92 | 1020.7 |
| 20260508023040 | 3 | 0 | 0.0 | 0.0 | 0.00 | 0.00 | 0.00 | 92 | 1020.6 |
| 20260508021533 | 3 | 0 | 0.0 | 0.0 | 0.00 | 0.00 | 0.00 | 93 | 1020.7 |
| 20260508020029 | 3 | 0 | 0.0 | 0.0 | 0.00 | 0.00 | 0.00 | 93 | 1020.6 |
| 20260508014533 | 3 | 0 | 0.0 | 0.0 | 0.00 | 0.00 | 0.00 | 93 | 1020.7 |
| 20260508013029 | 3 | 0 | 0.0 | 0.0 | 0.00 | 0.00 | 0.00 | 93 | 1020.6 |
| 20260508011527 | 3 | 0 | 0.0 | 0.0 | 0.00 | 0.00 | 0.00 | 93 | 1020.6 |
| 20260508010039 | 3 | 0 | 0.0 | 0.0 | 0.00 | 0.00 | 0.00 | 93 | 1020.5 |
| 20260508004529 | 3 | 0 | 0.0 | 0.0 | 0.00 | 0.00 | 0.00 | 92 | 1020.5 |
| 20260508003028 | 3 | 0 | 0.0 | 0.0 | 0.00 | 0.00 | 0.00 | 92 | 1020.5 |
| 20260508001535 | 3 | 0 | 0.0 | 0.0 | 0.00 | 0.00 | 0.00 | 92 | 1020.5 |
| 20260508000031 | 3 | 0 | 0.0 | 0.0 | 0.00 | 0.00 | 0.00 | 92 | 1020.5 |
| 20260507234535 | 3 | 0 | 0.0 | 0.0 | 0.00 | 0.00 | 0.00 | 91 | 1020.6 |
| 20260507233032 | 4 | 0 | 0.0 | 0.0 | 0.00 | 0.00 | 0.00 | 91 | 1020.5 |
| 20260507231531 | 5 | 0 | 0.0 | 0.0 | 0.00 | 0.00 | 0.00 | 91 | 1020.5 |
| 20260507230028 | 5 | 0 | 0.0 | 0.0 | 0.00 | 0.00 | 0.00 | 91 | 1020.4 |
| 20260507224547 | 4 | 0 | 0.0 | 0.0 | 0.00 | 0.00 | 0.00 | 90 | 1020.5 |
| 20260507223031 | 5 | 0 | 0.0 | 0.0 | 0.00 | 0.00 | 0.00 | 90 | 1020.4 |
| 20260507221536 | 5 | 0 | 0.0 | 0.0 | 0.00 | 0.00 | 0.00 | 89 | 1020.3 |
| 20260507220033 | 5 | 0 | 0.0 | 0.0 | 0.00 | 0.00 | 0.00 | 88 | 1020.2 |
| 20260507214537 | 5 | 0 | 0.0 | 0.0 | 0.00 | 0.00 | 0.00 | 88 | 1020.2 |
| 20260507213035 | 6 | 0 | 0.0 | 0.0 | 0.00 | 0.00 | 0.00 | 88 | 1020.3 |
| 20260507211528 | 6 | 0 | 0.0 | 0.0 | 0.00 | 0.00 | 0.00 | 87 | 1020.1 |
| 20260507210054 | 7 | 0 | 0.0 | 0.0 | 0.00 | 0.00 | 0.00 | 86 | 1019.9 |
| 20260507204529 | 7 | 0 | 0.0 | 0.0 | 0.00 | 0.00 | 0.00 | 85 | 1020.0 |
| 20260507203028 | 8 | 0 | 0.0 | 0.0 | 0.00 | 0.00 | 0.00 | 85 | 1019.8 |
| 20260507201534 | 8 | 0 | 0.0 | 0.0 | 0.00 | 0.00 | 0.00 | 83 | 1019.9 |
| 20260507200048 | 8 | 0 | 0.0 | 0.0 | 0.00 | 0.00 | 0.00 | 81 | 1019.7 |
| 20260507194532 | 9 | 0 | 0.0 | 0.0 | 0.00 | 0.00 | 0.00 | 79 | 1019.6 |
| 20260507193057 | 10 | 0 | 0.0 | 0.0 | 0.00 | 0.00 | 0.00 | 79 | 1019.5 |
| 20260507191530 | 10 | 0 | 0.0 | 3.2 | 0.00 | 0.00 | 0.00 | 78 | 1019.5 |
| 20260507190034 | 10 | 276 | 1.6 | 6.4 | 0.00 | 0.00 | 0.00 | 76 | 1019.4 |
| 20260507184528 | 11 | 289 | 1.6 | 6.4 | 0.00 | 0.00 | 0.00 | 75 | 1019.3 |
| 20260507183037 | 11 | 266 | 4.8 | 8.0 | 0.00 | 0.00 | 0.00 | 74 | 1019.1 |
| 20260507181532 | 11 | 270 | 4.8 | 11.3 | 0.00 | 0.00 | 0.00 | 75 | 1019.0 |
| 20260507180030 | 11 | 287 | 4.8 | 11.3 | 0.00 | 0.00 | 0.00 | 73 | 1018.9 |
| 20260507174529 | 11 | 227 | 4.8 | 9.7 | 0.00 | 0.00 | 0.00 | 69 | 1018.8 |
| 20260507173030 | 12 | 293 | 3.2 | 11.3 | 0.00 | 0.00 | 0.00 | 67 | 1018.8 |
| 20260507171529 | 12 | 259 | 4.8 | 11.3 | 0.00 | 0.00 | 0.00 | 67 | 1018.9 |
| 20260507170032 | 12 | 221 | 3.2 | 12.9 | 0.00 | 0.00 | 0.00 | 69 | 1018.8 |
| 20260507164528 | 12 | 243 | 4.8 | 11.3 | 0.00 | 0.00 | 0.00 | 68 | 1018.6 |
| 20260507163035 | 12 | 300 | 6.4 | 11.3 | 0.00 | 0.00 | 0.00 | 68 | 1018.5 |
| 20260507161530 | 12 | 260 | 4.8 | 14.5 | 0.00 | 0.00 | 0.00 | 65 | 1018.4 |
| 20260507160054 | 12 | 321 | 6.4 | 14.5 | 0.00 | 0.00 | 0.00 | 68 | 1018.3 |
| 20260507154529 | 13 | 272 | 8.0 | 12.9 | 0.00 | 0.00 | 0.00 | 65 | 1018.3 |
| 20260507153032 | 12 | 333 | 8.0 | 12.9 | 0.00 | 0.00 | 0.00 | 67 | 1018.3 |
| 20260507151530 | 12 | 221 | 3.2 | 16.1 | 0.00 | 0.00 | 0.00 | 66 | 1018.4 |
| 20260507150030 | 12 | 274 | 8.0 | 12.9 | 0.00 | 0.00 | 0.00 | 70 | 1018.1 |
| 20260507144542 | 12 | 235 | 8.0 | 17.7 | 0.00 | 0.00 | 0.00 | 72 | 1018.2 |
| 20260507143032 | 12 | 315 | 6.4 | 16.1 | 0.00 | 0.00 | 0.00 | 69 | 1018.3 |